Simultaneous Nadir Overpasses (SNOs) Predictions

Prediction of SNOs between FY3D and TERRA Satellite Orbit:

Table of predicted SNOs for the next 14.0 days since TLE Epoch: 11/28/2020
Index Date (FY3D) Time (FY3D) Lat,Lon (FY3D) SZA (FY3D ) Date (TERRA) Time (TERRA) Lat,Lon (TERRA) SZA (TERRA ) Distance(km) Time Diff (sec)
1 12/01/2020 04:40:57 69.16, 109.22 90.93 12/01/2020 04:41:22 69.14, 109.27 90.91 2.89 25
2 12/01/2020 05:31:38 -69.01, -83.25 89.22 12/01/2020 05:30:52 -69.03, -83.24 89.20 1.92 46
3 12/03/2020 20:57:18 69.13,-134.81 91.28 12/03/2020 20:57:50 69.12,-134.87 91.27 2.31 32
4 12/03/2020 21:48:00 -69.04, 32.64 88.81 12/03/2020 21:47:20 -69.02, 32.63 88.84 2.26 40
5 12/06/2020 13:13:40 69.16, -18.93 91.64 12/06/2020 13:14:17 69.16, -18.94 91.64 0.63 37
6 12/06/2020 14:04:22 -69.07, 148.52 88.46 12/06/2020 14:03:47 -69.05, 148.56 88.47 2.02 35
7 12/09/2020 05:30:02 69.19, 96.95 91.95 12/09/2020 05:30:44 69.18, 96.97 91.94 1.59 42
8 12/09/2020 06:20:43 -69.04, -95.53 88.20 12/09/2020 06:20:15 -69.03, -95.60 88.22 3.48 28
9 12/11/2020 21:46:22 69.18,-147.10 92.15 12/11/2020 21:47:10 69.20,-147.12 92.18 2.90 48
10 12/11/2020 22:37:04 -69.08, 20.35 87.95 12/11/2020 22:36:40 -69.10, 20.38 87.93 2.72 24
11 12/11/2020 23:27:30 68.05,-170.97 91.04 12/11/2020 23:26:23 68.09,-173.22 91.06 93.32 67
